Tracking 19247 objects as of 25-Sep-2018
HD Live streaming from Space Station
objects crossing your sky now

FENGYUN 1C DEB

Track FENGYUN 1C DEB now!
10-day predictions


NORAD ID: 31044
Int'l Code: 1999-025BEN
Perigee: 554.5 km
Apogee: 639.1 km
Inclination: 99.4 °
Period: 96.5 minutes
Semi major axis: 6967 km
RCS: 0.0074 m2 (small)
Launch date: May 10, 1999
Source: People's Republic of China (PRC)
Launch site: Taiyaun Space Center, China (TSC)

Note: This is SATELLITE DEBRIS
aabbcc
Your satellite tracking list
Your tracking list is empty




NASA's NSSDC Master Catalog

Two Line Element Set (TLE):
1 31044U 99025BEN 18267.17866619 +.00003814 +00000-0 +36472-3 0  9996
2 31044 099.4145 171.2582 0060677 123.1817 237.5236 14.92655527612846
Source of the keplerian elements: AFSPC